This is the latest recevied weather packets stored in our database for station/object N0QV. If no packets are shown the sender has not sent any weather packets the latest 10 day(s).
| Time | Temp. | Humidity | Pressure | Rain* | Wind** | Luminosity | Snow |
|---|---|---|---|---|---|---|---|
| 1788569831 | 28.33° C | 78% | 1013.1 hPa | 0 mm | - | 0 W/m² | - |
| 1788569527 | 28.89° C | 78% | 1012.9 hPa | 0 mm | - | 0 W/m² | - |
| 1788569221 | 28.89° C | 77% | 1013.1 hPa | 0 mm | - | 1 W/m² | - |
| 1788568916 | 28.89° C | 77% | 1012.9 hPa | 0 mm | - | 2 W/m² | - |
| 1788568611 | 28.89° C | 77% | 1012.9 hPa | 0 mm | - | 5 W/m² | - |
| 1788568308 | 29.44° C | 76% | 1012.7 hPa | 0 mm | - | 7 W/m² | - |
| 1788568003 | 29.44° C | 76% | 1012.9 hPa | 0 mm | - | 11 W/m² | - |
| 1788567703 | 29.44° C | 76% | 1012.8 hPa | 0 mm | - | 14 W/m² | - |
| 1788567398 | 30° C | 76% | 1012.8 hPa | 0 mm | - | 16 W/m² | - |
| 1788567097 | 30° C | 76% | 1012.8 hPa | 0 mm | - | 19 W/m² | - |
| 1788566793 | 30° C | 75% | 1012.8 hPa | 0 mm | - | 22 W/m² | - |
| 1788566489 | 30° C | 75% | 1012.8 hPa | 0 mm | - | 25 W/m² | - |
| 1788566188 | 30.56° C | 75% | 1012.8 hPa | 0 mm | - | 28 W/m² | - |
| 1788565888 | 30.56° C | 75% | 1012.8 hPa | 0 mm | - | 29 W/m² | - |
| 1788565583 | 30.56° C | 74% | 1012.7 hPa | 0 mm | - | 31 W/m² | - |
| 1788565279 | 31.11° C | 74% | 1012.6 hPa | 0 mm | - | 33 W/m² | - |
| 1788564974 | 31.11° C | 74% | 1012.8 hPa | 0 mm | - | 35 W/m² | - |
| 1788564670 | 31.11° C | 74% | 1012.6 hPa | 0 mm | - | 36 W/m² | - |
| 1788564367 | 31.11° C | 74% | 1012.8 hPa | 0 mm | - | 39 W/m² | - |
| 1788564063 | 31.11° C | 74% | 1012.6 hPa | 0 mm | - | 40 W/m² | - |
| 1788563758 | 31.67° C | 73% | 1012.6 hPa | 0 mm | - | 42 W/m² | - |
| 1788563453 | 31.67° C | 73% | 1012.6 hPa | 0 mm | - | 44 W/m² | - |
| 1788563152 | 31.67° C | 73% | 1012.7 hPa | 0 mm | - | 46 W/m² | - |
| 1788562848 | 31.67° C | 72% | 1012.5 hPa | 0 mm | - | 52 W/m² | - |
| 1788562545 | 31.67° C | 71% | 1012.5 hPa | 0 mm | - | 52 W/m² | - |
* Rain latest hour (hover to see other rain measurements)
** Current wind speed in m/s (hover to see current wind gust speed)